Overview Statistics Trail Chart Weather Telemetry Raw packets
 

This is the latest recevied weather packets stored in our database for station/object N5CSU. If no packets are shown the sender has not sent any weather packets the latest 10 day(s).

<< 1 2 3 4 5 6 7 >>
Time Temp. Humidity Pressure Rain* Wind** Luminosity Snow
1788608691 23.89° C 90% 1014.1 hPa 0 mm - 0 W/m² -
1788608390 24.44° C 90% 1014.1 hPa 0 mm - 0 W/m² -
1788608086 23.89° C 90% 1014.1 hPa 0 mm - 0 W/m² -
1788607781 23.89° C 89% 1014 hPa 0 mm - 0 W/m² -
1788607476 24.44° C 90% 1014.3 hPa 0 mm - 0 W/m² -
1788607171 24.44° C 89% 1014 hPa 0 mm - 0 W/m² -
1788606865 24.44° C 89% 1014 hPa 0 mm - 0 W/m² -
1788606560 24.44° C 89% 1014 hPa 0 mm - 0 W/m² -
1788606254 24.44° C 89% 1014 hPa 0 mm - 0 W/m² -
1788605949 24.44° C 88% 1014 hPa 0 mm - 0 W/m² -
1788605649 24.44° C 88% 1014.1 hPa 0 mm - 0 W/m² -
1788605349 24.44° C 88% 1013.8 hPa 0 mm - 0 W/m² -
1788605044 24.44° C 88% 1013.9 hPa 0 mm - 0 W/m² -
1788604739 24.44° C 88% 1013.8 hPa 0 mm - 0 W/m² -
1788604434 25° C 88% 1013.8 hPa 0 mm - 0 W/m² -
1788604130 25° C 87% 1014.1 hPa 0 mm - 0 W/m² -
1788603826 25° C 87% 1013.9 hPa 0 mm - 0 W/m² -
1788603526 25° C 87% 1013.8 hPa 0 mm - 0 W/m² -
1788603224 25° C 87% 1013.9 hPa 0 mm - 0 W/m² -
1788602919 25° C 85% 1013.7 hPa 0 mm - 0 W/m² -
1788602615 25° C 87% 1013.7 hPa 0 mm - 0 W/m² -
1788602314 25° C 88% 1013.9 hPa 0 mm - 0 W/m² -
1788602009 25° C 87% 1013.5 hPa 0 mm - 0 W/m² -
1788601703 25° C 85% 1013.7 hPa 0 mm - 0 W/m² -
1788601409 25.56° C 88% 1013.7 hPa 0 mm - 0 W/m² -

* Rain latest hour (hover to see other rain measurements)
** Current wind speed in m/s (hover to see current wind gust speed)